Météo par heure à Alho

Ce jour, 22 Octobre, Jeudi

Heure Température Précipitation Vent Pression Humidité
00:00 +1°C° 0 mm 4 m/s 752 mmHg 94%
01:00 +1°C° 0 mm 4 m/s 752 mmHg 94%
02:00 +1°C° 0 mm 5 m/s 752 mmHg 94%
03:00 +1°C° 0 mm 5 m/s 751 mmHg 94%
04:00 +1°C° 0 mm 5 m/s 750 mmHg 94%
05:00 +2°C° 0 mm 5 m/s 749 mmHg 94%
06:00 +2°C° 0.1 mm 5 m/s 749 mmHg 94%
07:00 +2°C° 0.1 mm 5 m/s 748 mmHg 94%
08:00 +2°C° 0.1 mm 5 m/s 748 mmHg 94%
09:00 +3°C° 0.3 mm 5 m/s 747 mmHg 94%
10:00 +3°C° 0.3 mm 5 m/s 746 mmHg 94%
11:00 +3°C° 0.3 mm 5 m/s 746 mmHg 94%
12:00 +3°C° 0.6 mm 5 m/s 745 mmHg 94%
13:00 +3°C° 0.6 mm 5 m/s 744 mmHg 94%
14:00 +5°C° 0.6 mm 5 m/s 744 mmHg 94%
15:00 +5°C° 0.4 mm 5 m/s 743 mmHg 95%
16:00 +5°C° 0.4 mm 5 m/s 742 mmHg 95%
17:00 +5°C° 0.4 mm 4 m/s 741 mmHg 95%
18:00 +5°C° 0.5 mm 4 m/s 740 mmHg 96%
19:00 +5°C° 0.5 mm 4 m/s 740 mmHg 97%
20:00 +5°C° 0.5 mm 4 m/s 739 mmHg 97%
21:00 +6°C° 0.6 mm 4 m/s 739 mmHg 97%
22:00 +7°C° 0.6 mm 3 m/s 738 mmHg 98%
23:00 +7°C° 0.6 mm 3 m/s 737 mmHg 98%

Demain, 23 Octobre, Vendredi

Heure Température Précipitation Vent Pression Humidité
00:00 +8°C° 0.8 mm 3 m/s 738 mmHg 97%
01:00 +8°C° 0.8 mm 3 m/s 738 mmHg 96%
02:00 +8°C° 0.8 mm 4 m/s 738 mmHg 95%
03:00 +8°C° 0 mm 4 m/s 738 mmHg 94%
04:00 +8°C° 0 mm 4 m/s 738 mmHg 93%
05:00 +7°C° 0 mm 4 m/s 739 mmHg 92%
06:00 +7°C° 0 mm 4 m/s 739 mmHg 92%
07:00 +8°C° 0 mm 3 m/s 739 mmHg 92%
08:00 +8°C° 0 mm 3 m/s 739 mmHg 92%
09:00 +8°C° 0.2 mm 2 m/s 739 mmHg 93%
10:00 +8°C° 0.2 mm 2 m/s 739 mmHg 94%
11:00 +9°C° 0.2 mm 1 m/s 739 mmHg 95%
12:00 +9°C° 0.7 mm 1 m/s 739 mmHg 95%
13:00 +9°C° 0.7 mm 1 m/s 739 mmHg 95%
14:00 +9°C° 0.7 mm 1 m/s 739 mmHg 95%
15:00 +8°C° 0.7 mm 2 m/s 739 mmHg 94%
16:00 +7°C° 0.7 mm 2 m/s 739 mmHg 93%
17:00 +7°C° 0.7 mm 3 m/s 740 mmHg 92%
18:00 +5°C° 0 mm 3 m/s 740 mmHg 89%
19:00 +5°C° 0 mm 4 m/s 741 mmHg 87%
20:00 +4°C° 0 mm 4 m/s 742 mmHg 84%
21:00 +3°C° 0 mm 4 m/s 742 mmHg 83%
22:00 +1°C° 0 mm 4 m/s 743 mmHg 83%
23:00 0°C° 0 mm 4 m/s 744 mmHg 83%

Après-demain, 24 Octobre, Samedi

Heure Température Précipitation Vent Pression Humidité
00:00 +1°C° 0 mm 3 m/s 745 mmHg 84%
01:00 0°C° 0 mm 3 m/s 745 mmHg 85%
02:00 0°C° 0 mm 3 m/s 746 mmHg 86%
03:00 -1°C° 0 mm 3 m/s 746 mmHg 86%
04:00 -1°C° 0 mm 2 m/s 746 mmHg 87%
05:00 -1°C° 0 mm 2 m/s 746 mmHg 88%
06:00 -1°C° 0 mm 2 m/s 746 mmHg 87%
07:00 -1°C° 0 mm 3 m/s 747 mmHg 87%
08:00 -1°C° 0 mm 3 m/s 747 mmHg 86%
09:00 0°C° 0 mm 3 m/s 747 mmHg 83%
10:00 +1°C° 0 mm 3 m/s 747 mmHg 79%
11:00 +1°C° 0 mm 4 m/s 747 mmHg 75%
12:00 +2°C° 0 mm 3 m/s 747 mmHg 75%
13:00 +2°C° 0 mm 3 m/s 747 mmHg 74%
14:00 +3°C° 0 mm 3 m/s 747 mmHg 74%
15:00 +2°C° 0 mm 3 m/s 747 mmHg 78%
16:00 +2°C° 0 mm 3 m/s 747 mmHg 82%
17:00 +2°C° 0 mm 2 m/s 747 mmHg 86%
18:00 +2°C° 0.1 mm 2 m/s 747 mmHg 89%
19:00 +2°C° 0.1 mm 2 m/s 747 mmHg 91%
20:00 +4°C° 0.1 mm 1 m/s 747 mmHg 94%
21:00 +4°C° 0.1 mm 1 m/s 747 mmHg 94%
22:00 +4°C° 0.1 mm 1 m/s 747 mmHg 94%
23:00 +3°C° 0.1 mm 0 m/s 747 mmHg 94%

, 25 Octobre, Dimanche

Heure Température Précipitation Vent Pression Humidité
00:00 +4°C° 0.4 mm 1 m/s 747 mmHg 92%
01:00 +4°C° 0.4 mm 1 m/s 747 mmHg 91%
02:00 +3°C° 0.4 mm 2 m/s 747 mmHg 89%
03:00 +3°C° 0.1 mm 2 m/s 748 mmHg 89%
04:00 +2°C° 0.1 mm 2 m/s 748 mmHg 88%
05:00 +2°C° 0.1 mm 2 m/s 749 mmHg 87%
06:00 +2°C° 0 mm 2 m/s 749 mmHg 89%
07:00 +1°C° 0 mm 2 m/s 750 mmHg 90%
08:00 +1°C° 0 mm 2 m/s 750 mmHg 91%
09:00 +2°C° 0 mm 2 m/s 751 mmHg 87%
10:00 +3°C° 0 mm 2 m/s 752 mmHg 83%
11:00 +5°C° 0 mm 1 m/s 753 mmHg 79%
12:00 +5°C° 0 mm 1 m/s 753 mmHg 78%
13:00 +5°C° 0 mm 1 m/s 754 mmHg 77%
14:00 +6°C° 0 mm 1 m/s 754 mmHg 77%
15:00 +4°C° 0 mm 1 m/s 755 mmHg 81%
16:00 +3°C° 0 mm 1 m/s 755 mmHg 85%
17:00 +2°C° 0 mm 1 m/s 755 mmHg 89%
18:00 +2°C° 0 mm 1 m/s 756 mmHg 90%
19:00 +2°C° 0 mm 1 m/s 756 mmHg 90%
20:00 +2°C° 0 mm 1 m/s 756 mmHg 91%
21:00 +1°C° 0 mm 2 m/s 756 mmHg 91%
22:00 +1°C° 0 mm 2 m/s 757 mmHg 92%
23:00 +1°C° 0 mm 2 m/s 757 mmHg 93%

25 Octobre, Dimanche

Heure Température Précipitation Vent Pression Humidité
00:00 +4°C° 0.4 mm 1 m/s 747 mmHg 92%
01:00 +4°C° 0.4 mm 1 m/s 747 mmHg 91%
02:00 +3°C° 0.4 mm 2 m/s 747 mmHg 89%
03:00 +3°C° 0.1 mm 2 m/s 748 mmHg 89%
04:00 +2°C° 0.1 mm 2 m/s 748 mmHg 88%
05:00 +2°C° 0.1 mm 2 m/s 749 mmHg 87%
06:00 +2°C° 0 mm 2 m/s 749 mmHg 89%
07:00 +1°C° 0 mm 2 m/s 750 mmHg 90%
08:00 +1°C° 0 mm 2 m/s 750 mmHg 91%
09:00 +2°C° 0 mm 2 m/s 751 mmHg 87%
10:00 +3°C° 0 mm 2 m/s 752 mmHg 83%
11:00 +5°C° 0 mm 1 m/s 753 mmHg 79%
12:00 +5°C° 0 mm 1 m/s 753 mmHg 78%
13:00 +5°C° 0 mm 1 m/s 754 mmHg 77%
14:00 +6°C° 0 mm 1 m/s 754 mmHg 77%
15:00 +4°C° 0 mm 1 m/s 755 mmHg 81%
16:00 +3°C° 0 mm 1 m/s 755 mmHg 85%
17:00 +2°C° 0 mm 1 m/s 755 mmHg 89%
18:00 +2°C° 0 mm 1 m/s 756 mmHg 90%
19:00 +2°C° 0 mm 1 m/s 756 mmHg 90%
20:00 +2°C° 0 mm 1 m/s 756 mmHg 91%
21:00 +1°C° 0 mm 2 m/s 756 mmHg 91%
22:00 +1°C° 0 mm 2 m/s 757 mmHg 92%
23:00 +1°C° 0 mm 2 m/s 757 mmHg 93%

26 Octobre, Lundi

Heure Température Précipitation Vent Pression Humidité
00:00 +2°C° 0 mm 2 m/s 757 mmHg 93%
01:00 +2°C° 0 mm 2 m/s 757 mmHg 93%
02:00 +1°C° 0 mm 3 m/s 757 mmHg 93%
03:00 +2°C° 0 mm 3 m/s 757 mmHg 94%
04:00 +2°C° 0 mm 3 m/s 757 mmHg 95%
05:00 +3°C° 0 mm 3 m/s 757 mmHg 96%
06:00 +4°C° 0 mm 4 m/s 757 mmHg 96%
07:00 +4°C° 0 mm 4 m/s 757 mmHg 96%
08:00 +5°C° 0 mm 4 m/s 757 mmHg 96%
09:00 +5°C° 0 mm 4 m/s 757 mmHg 94%
10:00 +6°C° 0 mm 4 m/s 757 mmHg 92%
11:00 +7°C° 0 mm 4 m/s 757 mmHg 91%
12:00 +7°C° 0 mm 4 m/s 757 mmHg 90%
13:00 +7°C° 0 mm 4 m/s 757 mmHg 90%
14:00 +8°C° 0 mm 3 m/s 757 mmHg 90%
15:00 +8°C° 0 mm 3 m/s 757 mmHg 91%
16:00 +8°C° 0 mm 3 m/s 757 mmHg 93%
17:00 +7°C° 0 mm 3 m/s 757 mmHg 94%
18:00 +7°C° 0 mm 3 m/s 757 mmHg 95%
19:00 +7°C° 0 mm 3 m/s 757 mmHg 95%
20:00 +5°C° 0 mm 3 m/s 757 mmHg 95%
21:00 +7°C° 0 mm 3 m/s 757 mmHg 95%
22:00 +7°C° 0 mm 3 m/s 757 mmHg 95%
23:00 +8°C° 0 mm 3 m/s 757 mmHg 95%

27 Octobre, Mardi

Heure Température Précipitation Vent Pression Humidité
00:00 +8°C° 0 mm 3 m/s 757 mmHg 95%
01:00 +8°C° 0 mm 3 m/s 757 mmHg 95%
02:00 +8°C° 0 mm 3 m/s 757 mmHg 95%
03:00 +8°C° 0 mm 3 m/s 757 mmHg 95%
04:00 +8°C° 0 mm 3 m/s 756 mmHg 95%
05:00 +8°C° 0 mm 3 m/s 756 mmHg 94%
06:00 +7°C° 0 mm 3 m/s 756 mmHg 94%
07:00 +7°C° 0 mm 3 m/s 756 mmHg 93%
08:00 +7°C° 0 mm 3 m/s 756 mmHg 93%
09:00 +7°C° 0 mm 3 m/s 756 mmHg 92%
10:00 +7°C° 0 mm 3 m/s 756 mmHg 91%
11:00 +6°C° 0 mm 4 m/s 756 mmHg 89%
12:00 +7°C° 0.1 mm 3 m/s 755 mmHg 90%
13:00 +7°C° 0.1 mm 3 m/s 755 mmHg 90%
14:00 +7°C° 0.1 mm 3 m/s 755 mmHg 91%
15:00 +7°C° 0.2 mm 3 m/s 755 mmHg 92%
16:00 +7°C° 0.2 mm 3 m/s 754 mmHg 92%
17:00 +7°C° 0.2 mm 3 m/s 754 mmHg 93%
18:00 +7°C° 0.1 mm 3 m/s 754 mmHg 94%
19:00 +7°C° 0.1 mm 3 m/s 754 mmHg 94%
20:00 +8°C° 0.1 mm 3 m/s 754 mmHg 95%
21:00 +8°C° 0.1 mm 3 m/s 754 mmHg 95%
22:00 +8°C° 0.1 mm 3 m/s 753 mmHg 95%
23:00 +8°C° 0.1 mm 3 m/s 753 mmHg 96%
Voir plus

Nous avons besoin de votre consentement

Meteoprog et ses fournisseurs de services peuvent stocker et accéder à des données personnelles telles que des cookies, des identifiants d'appareils ou d'autres technologies similaires sur votre appareil et traiter ces données pour personnaliser le contenu et les publicités, ainsi que pour fournir des fonctionnalités de médias sociaux et analyser le trafic.

  • Stocker et/ou accéder à des informations sur votre appareil

    Des cookies, des identifiants d'appareils ou d'autres informations peuvent être stockés ou accessibles sur votre appareil aux fins indiquées ci-dessus.

  • Annonces et contenus personnalisés, mesure des annonces et des contenus, connaissance de l'audience et développement de produits

    Les annonces et le contenu peuvent être personnalisés en fonction d'un profil. D'autres données peuvent être ajoutées pour mieux personnaliser les annonces et le contenu. Les performances des publicités et du contenu peuvent être mesurées. Il est possible d'obtenir des informations sur le public qui a vu les publicités et le contenu. Ces données peuvent être utilisées pour développer ou améliorer l'expérience de l'utilisateur, les systèmes et les logiciels.

En cliquant sur "J'accepte", vous autorisez l'utilisation de cookies, des identifiants d'appareils, des balises web ou d'autres technologies similaires. Vos paramètres peuvent être modifiés dans le navigateur de votre appareil.

Dans certains cas, des intérêts légitimes peuvent être invoqués plutôt qu'un consentement. Vous pouvez en savoir plus à ce sujet dans notre Politique de confidentialité et de cookies.